TimePDT,TemperatureF,Dew PointF,Humidity,Sea Level PressureIn,VisibilityMPH,Wind Direction,Wind SpeedMPH,Gust SpeedMPH,PrecipitationIn,Events,Conditions,WindDirDegrees,DateUTC
12:55 AM,64.0,30.9,29,30.03,10.0,West,12.7,-,N/A,,Partly Cloudy,260,2013-03-20 07:55:00
1:11 AM,64.4,32.0,30,30.06,10.0,West,17.3,26.5,N/A,,Clear,280,2013-03-20 08:11:00
1:24 AM,62.6,32.0,32,30.06,10.0,SSW,12.7,-,N/A,,Clear,200,2013-03-20 08:24:00
1:55 AM,63.0,34.0,34,30.01,10.0,WSW,17.3,23.0,N/A,,Clear,250,2013-03-20 08:55:00
2:55 AM,61.0,34.0,36,30.01,10.0,West,16.1,-,N/A,,Clear,280,2013-03-20 09:55:00
3:55 AM,59.0,36.0,42,30.01,10.0,West,15.0,-,N/A,,Clear,270,2013-03-20 10:55:00
4:55 AM,57.0,36.0,45,29.99,10.0,WSW,11.5,-,N/A,,Clear,240,2013-03-20 11:55:00
5:55 AM,57.0,37.0,47,30.00,10.0,WSW,9.2,-,N/A,,Clear,250,2013-03-20 12:55:00
6:55 AM,55.9,36.0,47,30.00,10.0,WSW,10.4,-,N/A,,Clear,240,2013-03-20 13:55:00
7:55 AM,57.0,37.0,47,30.02,10.0,SW,12.7,-,N/A,,Clear,230,2013-03-20 14:55:00
8:55 AM,61.0,37.0,41,30.03,10.0,West,16.1,21.9,N/A,,Clear,260,2013-03-20 15:55:00
9:55 AM,64.0,37.9,38,30.01,10.0,West,23.0,28.8,N/A,,Clear,260,2013-03-20 16:55:00
10:55 AM,69.1,36.0,30,30.00,10.0,WSW,27.6,34.5,N/A,,Clear,250,2013-03-20 17:55:00
11:55 AM,69.8,33.8,27,30.02,10.0,West,23.0,34.5,N/A,,Clear,260,2013-03-20 18:55:00
12:55 PM,73.9,24.1,16,29.96,10.0,West,32.2,39.1,N/A,,Clear,270,2013-03-20 19:55:00
1:55 PM,73.9,30.0,20,29.96,10.0,West,19.6,31.1,N/A,,Clear,270,2013-03-20 20:55:00
2:55 PM,73.9,27.0,18,29.94,10.0,West,27.6,41.4,N/A,,Clear,270,2013-03-20 21:55:00
3:00 PM,-9999,-9999,N/A,-9999,-9999.0,North,-9999.0,-,N/A,,Unknown,0,2013-03-20 22:00:00
3:55 PM,72.0,27.0,19,29.95,10.0,West,31.1,42.6,N/A,,Clear,280,2013-03-20 22:55:00
4:55 PM,69.1,36.0,30,29.96,10.0,West,27.6,38.0,N/A,,Clear,260,2013-03-20 23:55:00
5:55 PM,66.0,30.0,26,29.95,10.0,WSW,27.6,31.1,N/A,,Clear,250,2013-03-21 00:55:00
6:55 PM,64.0,30.0,28,29.95,10.0,West,17.3,29.9,N/A,,Clear,260,2013-03-21 01:55:00
7:55 PM,62.1,36.0,38,29.94,10.0,WSW,23.0,28.8,N/A,,Clear,250,2013-03-21 02:55:00
8:55 PM,61.0,36.0,39,29.94,10.0,WSW,12.7,-,N/A,,Clear,250,2013-03-21 03:55:00
9:55 PM,61.0,36.0,39,29.94,10.0,West,20.7,27.6,N/A,,Clear,260,2013-03-21 04:55:00
10:55 PM,59.0,37.9,46,29.94,10.0,West,15.0,25.3,N/A,,Clear,280,2013-03-21 05:55:00
11:55 PM,57.9,37.9,47,29.92,10.0,West,19.6,28.8,N/A,,Clear,260,2013-03-21 06:55:00